Time,TemperatureF,DewpointF,PressureIn,WindDirection,WindDirectionDegrees,WindSpeedMPH,WindSpeedGustMPH,Humidity,HourlyPrecipIn,Conditions,Clouds,dailyrainin,SolarRadiationWatts/m^2,SoftwareType,DateUTC
2013-03-20 00:00:00,40.6,13.1,29.83,WNW,292,10.0,16.0,32,0.00,,,0.00,0,WeatherCatV1.11B39,2013-03-20 04:00:00,
2013-03-20 00:05:00,40.8,11.8,29.83,NW,304,19.0,28.0,30,0.00,,,0.00,0,WeatherCatV1.11B39,2013-03-20 04:05:00,
2013-03-20 00:06:00,40.9,11.1,29.83,WSW,248,21.0,28.0,29,0.00,,,0.00,0,WeatherCatV1.11B39,2013-03-20 04:06:00,
2013-03-20 00:11:00,40.8,11.0,29.83,West,280,10.0,25.0,29,0.00,,,0.00,0,WeatherCatV1.11B39,2013-03-20 04:11:00,
2013-03-20 00:16:00,40.6,10.9,29.84,West,264,17.0,26.0,29,0.00,,,0.00,0,WeatherCatV1.11B39,2013-03-20 04:16:00,
2013-03-20 00:21:00,40.6,10.9,29.84,WNW,284,12.0,28.0,29,0.00,,,0.00,0,WeatherCatV1.11B39,2013-03-20 04:21:00,
2013-03-20 00:26:00,40.3,12.1,29.84,West,278,17.0,22.0,31,0.00,,,0.00,0,WeatherCatV1.11B39,2013-03-20 04:26:00,
2013-03-20 00:31:00,40.2,12.7,29.84,WNW,292,7.0,14.0,32,0.00,,,0.00,0,WeatherCatV1.11B39,2013-03-20 04:31:00,
2013-03-20 00:36:00,39.9,13.8,29.84,NW,315,12.0,14.0,34,0.00,,,0.00,0,WeatherCatV1.11B39,2013-03-20 04:36:00,
2013-03-20 00:41:00,39.8,14.4,29.84,WNW,288,0.0,8.0,35,0.00,,,0.00,0,WeatherCatV1.11B39,2013-03-20 04:41:00,
2013-03-20 00:46:00,39.3,15.2,29.84,West,263,6.0,10.0,37,0.00,,,0.00,0,WeatherCatV1.11B39,2013-03-20 04:46:00,
2013-03-20 00:51:00,39.2,15.1,29.84,WNW,291,10.0,18.0,37,0.00,,,0.00,0,WeatherCatV1.11B39,2013-03-20 04:51:00,
2013-03-20 00:56:00,39.1,15.1,29.84,WNW,296,2.0,12.0,37,0.00,,,0.00,0,WeatherCatV1.11B39,2013-03-20 04:56:00,
2013-03-20 01:01:00,39.1,15.7,29.85,West,265,6.0,18.0,38,0.00,,,0.00,0,WeatherCatV1.11B39,2013-03-20 05:01:00,
2013-03-20 01:06:00,38.8,16.0,29.85,WNW,289,11.0,11.0,39,0.00,,,0.00,0,WeatherCatV1.11B39,2013-03-20 05:06:00,
2013-03-20 01:11:00,38.6,15.8,29.85,NW,304,6.0,8.0,39,0.00,,,0.00,0,WeatherCatV1.11B39,2013-03-20 05:11:00,
2013-03-20 01:16:00,38.3,16.1,29.85,WNW,295,7.0,8.0,40,0.00,,,0.00,0,WeatherCatV1.11B39,2013-03-20 05:16:00,
2013-03-20 01:21:00,38.0,16.4,29.85,West,268,7.0,10.0,41,0.00,,,0.00,0,WeatherCatV1.11B39,2013-03-20 05:21:00,
2013-03-20 01:26:00,37.9,17.4,29.85,WNW,301,2.0,7.0,43,0.00,,,0.00,0,WeatherCatV1.11B39,2013-03-20 05:26:00,
2013-03-20 01:31:00,37.8,17.3,29.85,WNW,301,12.0,12.0,43,0.00,,,0.00,0,WeatherCatV1.11B39,2013-03-20 05:31:00,
2013-03-20 01:36:00,37.9,16.3,29.85,WSW,257,1.0,5.0,41,0.00,,,0.00,0,WeatherCatV1.11B39,2013-03-20 05:36:00,
2013-03-20 01:41:00,37.8,16.8,29.85,West,272,1.0,2.0,42,0.00,,,0.00,0,WeatherCatV1.11B39,2013-03-20 05:41:00,
2013-03-20 01:47:00,37.5,16.0,29.86,WNW,282,12.0,12.0,41,0.00,,,0.00,0,WeatherCatV1.11B39,2013-03-20 05:47:00,
2013-03-20 01:52:00,37.9,14.0,29.86,NW,306,0.0,10.0,37,0.00,,,0.00,0,WeatherCatV1.11B39,2013-03-20 05:52:00,
2013-03-20 01:58:00,37.8,15.1,29.86,NW,304,2.0,7.0,39,0.00,,,0.00,0,WeatherCatV1.11B39,2013-03-20 05:58:00,
2013-03-20 02:03:00,37.6,14.3,29.87,West,271,5.0,5.0,38,0.00,,,0.00,0,WeatherCatV1.11B39,2013-03-20 06:03:00,
2013-03-20 02:08:00,37.9,12.7,29.87,West,277,4.0,19.0,35,0.00,,,0.00,0,WeatherCatV1.11B39,2013-03-20 06:08:00,
2013-03-20 02:13:00,38.0,12.8,29.87,NW,312,11.0,14.0,35,0.00,,,0.00,0,WeatherCatV1.11B39,2013-03-20 06:13:00,
2013-03-20 02:18:00,37.9,11.4,29.87,WSW,237,7.0,25.0,33,0.00,,,0.00,0,WeatherCatV1.11B39,2013-03-20 06:18:00,
2013-03-20 02:23:00,37.8,11.3,29.87,West,267,8.0,16.0,33,0.00,,,0.00,0,WeatherCatV1.11B39,2013-03-20 06:23:00,
2013-03-20 02:28:00,37.8,12.0,29.87,West,280,6.0,12.0,34,0.00,,,0.00,0,WeatherCatV1.11B39,2013-03-20 06:28:00,
2013-03-20 02:33:00,37.9,12.1,29.87,WNW,287,8.0,12.0,34,0.00,,,0.00,0,WeatherCatV1.11B39,2013-03-20 06:33:00,
2013-03-20 02:38:00,37.6,11.8,29.87,West,281,0.0,7.0,34,0.00,,,0.00,0,WeatherCatV1.11B39,2013-03-20 06:38:00,
2013-03-20 02:43:00,37.5,12.4,29.87,WNW,296,0.0,10.0,35,0.00,,,0.00,0,WeatherCatV1.11B39,2013-03-20 06:43:00,
2013-03-20 02:48:00,37.3,12.2,29.88,WSW,253,14.0,14.0,35,0.00,,,0.00,0,WeatherCatV1.11B39,2013-03-20 06:48:00,
2013-03-20 02:53:00,37.3,12.2,29.88,WNW,296,0.0,3.0,35,0.00,,,0.00,0,WeatherCatV1.11B39,2013-03-20 06:53:00,
2013-03-20 02:58:00,37.2,12.1,29.88,West,261,0.0,11.0,35,0.00,,,0.00,0,WeatherCatV1.11B39,2013-03-20 06:58:00,
2013-03-20 03:03:00,37.2,12.7,29.88,WSW,253,4.0,10.0,36,0.00,,,0.00,0,WeatherCatV1.11B39,2013-03-20 07:03:00,
2013-03-20 03:08:00,37.0,11.9,29.88,WSW,256,9.0,12.0,35,0.00,,,0.00,0,WeatherCatV1.11B39,2013-03-20 07:08:00,
2013-03-20 03:13:00,36.9,12.5,29.88,WSW,250,4.0,8.0,36,0.00,,,0.00,0,WeatherCatV1.11B39,2013-03-20 07:13:00,
2013-03-20 03:18:00,36.9,12.5,29.88,West,281,3.0,6.0,36,0.00,,,0.00,0,WeatherCatV1.11B39,2013-03-20 07:18:00,
2013-03-20 03:23:00,36.8,13.0,29.88,WNW,291,1.0,7.0,37,0.00,,,0.00,0,WeatherCatV1.11B39,2013-03-20 07:23:00,
2013-03-20 03:28:00,36.8,12.4,29.88,WNW,282,2.0,8.0,36,0.00,,,0.00,0,WeatherCatV1.11B39,2013-03-20 07:28:00,
2013-03-20 03:33:00,36.8,11.7,29.88,NW,318,0.0,6.0,35,0.00,,,0.00,0,WeatherCatV1.11B39,2013-03-20 07:33:00,
2013-03-20 03:38:00,36.8,12.4,29.88,West,267,5.0,10.0,36,0.00,,,0.00,0,WeatherCatV1.11B39,2013-03-20 07:38:00,
2013-03-20 03:43:00,36.8,13.0,29.88,WNW,285,0.0,6.0,37,0.00,,,0.00,0,WeatherCatV1.11B39,2013-03-20 07:43:00,
2013-03-20 03:48:00,36.6,13.4,29.87,WSW,256,0.0,2.0,38,0.00,,,0.00,0,WeatherCatV1.11B39,2013-03-20 07:48:00,
2013-03-20 03:53:00,36.5,12.7,29.87,WSW,241,3.0,5.0,37,0.00,,,0.00,0,WeatherCatV1.11B39,2013-03-20 07:53:00,
2013-03-20 03:58:00,36.5,12.7,29.87,WSW,253,0.0,2.0,37,0.00,,,0.00,0,WeatherCatV1.11B39,2013-03-20 07:58:00,
2013-03-20 04:03:00,36.6,12.8,29.87,WSW,253,2.0,2.0,37,0.00,,,0.00,0,WeatherCatV1.11B39,2013-03-20 08:03:00,
2013-03-20 04:08:00,36.8,13.0,29.87,WSW,258,0.0,0.0,37,0.00,,,0.00,0,WeatherCatV1.11B39,2013-03-20 08:08:00,
2013-03-20 04:13:00,36.5,12.7,29.87,WSW,257,1.0,2.0,37,0.00,,,0.00,0,WeatherCatV1.11B39,2013-03-20 08:13:00,
2013-03-20 04:18:00,36.5,13.3,29.87,WSW,257,0.0,2.0,38,0.00,,,0.00,0,WeatherCatV1.11B39,2013-03-20 08:18:00,
2013-03-20 04:23:00,36.5,13.3,29.87,WSW,257,2.0,2.0,38,0.00,,,0.00,0,WeatherCatV1.11B39,2013-03-20 08:23:00,
2013-03-20 04:28:00,35.9,13.4,29.87,WSW,243,2.0,2.0,39,0.00,,,0.00,0,WeatherCatV1.11B39,2013-03-20 08:28:00,
2013-03-20 04:33:00,35.9,12.8,29.87,WSW,240,0.0,2.0,38,0.00,,,0.00,0,WeatherCatV1.11B39,2013-03-20 08:33:00,
2013-03-20 04:38:00,36.0,12.9,29.87,WSW,240,0.0,0.0,38,0.00,,,0.00,0,WeatherCatV1.11B39,2013-03-20 08:38:00,
2013-03-20 04:43:00,36.0,12.9,29.87,WSW,240,0.0,0.0,38,0.00,,,0.00,0,WeatherCatV1.11B39,2013-03-20 08:43:00,
2013-03-20 04:48:00,36.0,13.5,29.87,WSW,240,0.0,1.0,39,0.00,,,0.00,0,WeatherCatV1.11B39,2013-03-20 08:48:00,
2013-03-20 04:53:00,35.8,13.9,29.87,SSE,168,1.0,5.0,40,0.00,,,0.00,0,WeatherCatV1.11B39,2013-03-20 08:53:00,
2013-03-20 04:58:00,35.8,12.1,29.87,SSW,202,0.0,0.0,37,0.00,,,0.00,0,WeatherCatV1.11B39,2013-03-20 08:58:00,
2013-03-20 05:03:00,35.6,15.3,29.88,SSW,202,0.0,2.0,43,0.00,,,0.00,0,WeatherCatV1.11B39,2013-03-20 09:03:00,
2013-03-20 05:08:00,35.6,13.1,29.88,SSW,200,0.0,5.0,39,0.00,,,0.00,0,WeatherCatV1.11B39,2013-03-20 09:08:00,
2013-03-20 05:13:00,35.8,13.3,29.88,SSW,200,0.0,0.0,39,0.00,,,0.00,0,WeatherCatV1.11B39,2013-03-20 09:13:00,
2013-03-20 05:18:00,36.0,12.3,29.88,SSW,200,2.0,2.0,37,0.00,,,0.00,0,WeatherCatV1.11B39,2013-03-20 09:18:00,
2013-03-20 05:23:00,35.9,13.4,29.88,West,261,0.0,1.0,39,0.00,,,0.00,0,WeatherCatV1.11B39,2013-03-20 09:23:00,
2013-03-20 05:28:00,36.0,11.7,29.88,SSW,206,2.0,4.0,36,0.00,,,0.00,0,WeatherCatV1.11B39,2013-03-20 09:28:00,
2013-03-20 05:33:00,35.8,12.7,29.88,SSW,205,0.0,2.0,38,0.00,,,0.00,0,WeatherCatV1.11B39,2013-03-20 09:33:00,
2013-03-20 05:38:00,35.3,12.3,29.88,WSW,253,0.0,2.0,38,0.00,,,0.00,0,WeatherCatV1.11B39,2013-03-20 09:38:00,
2013-03-20 05:43:00,35.0,12.6,29.88,SW,227,2.0,7.0,39,0.00,,,0.00,0,WeatherCatV1.11B39,2013-03-20 09:43:00,
2013-03-20 05:48:00,35.0,11.4,29.88,West,265,3.0,7.0,37,0.00,,,0.00,0,WeatherCatV1.11B39,2013-03-20 09:48:00,
2013-03-20 05:53:00,34.9,10.7,29.88,West,263,5.0,6.0,36,0.00,,,0.00,0,WeatherCatV1.11B39,2013-03-20 09:53:00,
2013-03-20 05:58:00,34.6,12.8,29.88,West,263,0.0,2.0,40,0.00,,,0.00,0,WeatherCatV1.11B39,2013-03-20 09:58:00,
2013-03-20 06:05:00,34.3,11.9,29.89,WSW,244,5.0,8.0,39,0.00,,,0.00,0,WeatherCatV1.11B39,2013-03-20 10:05:00,
2013-03-20 06:10:00,35.0,12.0,29.89,West,274,8.0,12.0,38,0.00,,,0.00,0,WeatherCatV1.11B39,2013-03-20 10:10:00,
2013-03-20 06:15:00,34.9,10.7,29.89,WNW,289,6.0,13.0,36,0.00,,,0.00,0,WeatherCatV1.11B39,2013-03-20 10:15:00,
2013-03-20 06:20:00,34.6,12.2,29.89,West,278,6.0,13.0,39,0.00,,,0.00,0,WeatherCatV1.11B39,2013-03-20 10:20:00,
2013-03-20 06:25:00,34.4,12.0,29.89,West,263,7.0,10.0,39,0.00,,,0.00,0,WeatherCatV1.11B39,2013-03-20 10:25:00,
2013-03-20 06:30:00,34.6,12.2,29.89,West,274,2.0,6.0,39,0.00,,,0.00,0,WeatherCatV1.11B39,2013-03-20 10:30:00,
2013-03-20 06:35:00,34.1,12.3,29.89,West,275,0.0,8.0,40,0.00,,,0.00,0,WeatherCatV1.11B39,2013-03-20 10:35:00,
2013-03-20 06:40:00,34.0,12.2,29.89,West,278,3.0,7.0,40,0.00,,,0.00,0,WeatherCatV1.11B39,2013-03-20 10:40:00,
2013-03-20 06:45:00,34.1,11.8,29.89,WSW,256,6.0,13.0,39,0.00,,,0.00,0,WeatherCatV1.11B39,2013-03-20 10:45:00,
2013-03-20 06:50:00,34.1,11.8,29.89,WNW,291,2.0,13.0,39,0.00,,,0.00,0,WeatherCatV1.11B39,2013-03-20 10:50:00,
2013-03-20 06:55:00,34.3,11.4,29.89,WNW,282,7.0,10.0,38,0.00,,,0.00,0,WeatherCatV1.11B39,2013-03-20 10:55:00,
2013-03-20 07:01:00,34.0,12.2,29.89,West,272,5.0,8.0,40,0.00,,,0.00,0,WeatherCatV1.11B39,2013-03-20 11:01:00,
2013-03-20 07:06:00,34.1,11.2,29.89,WNW,284,1.0,14.0,38,0.00,,,0.00,0,WeatherCatV1.11B39,2013-03-20 11:06:00,
2013-03-20 07:11:00,34.4,12.0,29.89,SW,236,10.0,13.0,39,0.00,,,0.00,7,WeatherCatV1.11B39,2013-03-20 11:11:00,
2013-03-20 07:16:00,34.3,12.5,29.89,WSW,254,5.0,6.0,40,0.00,,,0.00,9,WeatherCatV1.11B39,2013-03-20 11:16:00,
2013-03-20 07:21:00,34.3,12.5,29.89,West,274,5.0,10.0,40,0.00,,,0.00,12,WeatherCatV1.11B39,2013-03-20 11:21:00,
2013-03-20 07:26:00,34.1,11.8,29.89,WSW,251,2.0,10.0,39,0.00,,,0.00,19,WeatherCatV1.11B39,2013-03-20 11:26:00,
2013-03-20 07:31:00,34.3,13.6,29.89,West,278,2.0,3.0,42,0.00,,,0.00,25,WeatherCatV1.11B39,2013-03-20 11:31:00,
2013-03-20 07:36:00,34.3,13.1,29.89,West,275,2.0,7.0,41,0.00,,,0.00,33,WeatherCatV1.11B39,2013-03-20 11:36:00,
2013-03-20 07:41:00,34.4,11.5,29.89,WSW,239,7.0,8.0,38,0.00,,,0.00,53,WeatherCatV1.11B39,2013-03-20 11:41:00,
2013-03-20 07:46:00,34.7,13.4,29.89,WNW,282,1.0,5.0,41,0.00,,,0.00,69,WeatherCatV1.11B39,2013-03-20 11:46:00,
2013-03-20 07:51:00,34.7,12.3,29.89,West,261,2.0,12.0,39,0.00,,,0.00,84,WeatherCatV1.11B39,2013-03-20 11:51:00,
2013-03-20 07:56:00,34.9,12.5,29.89,West,261,1.0,10.0,39,0.00,,,0.00,100,WeatherCatV1.11B39,2013-03-20 11:56:00,
2013-03-20 08:01:00,35.0,13.1,29.89,West,267,5.0,9.0,40,0.00,,,0.00,114,WeatherCatV1.11B39,2013-03-20 12:01:00,
2013-03-20 08:06:00,35.2,12.8,29.89,WSW,253,5.0,8.0,39,0.00,,,0.00,128,WeatherCatV1.11B39,2013-03-20 12:06:00,
2013-03-20 08:11:00,35.2,12.8,29.89,WSW,257,5.0,10.0,39,0.00,,,0.00,143,WeatherCatV1.11B39,2013-03-20 12:11:00,
2013-03-20 08:16:00,35.5,12.4,29.89,WNW,301,2.0,6.0,38,0.00,,,0.00,158,WeatherCatV1.11B39,2013-03-20 12:16:00,
2013-03-20 08:21:00,35.8,12.7,29.89,WSW,239,5.0,5.0,38,0.00,,,0.00,172,WeatherCatV1.11B39,2013-03-20 12:21:00,
2013-03-20 08:26:00,35.9,11.6,29.89,West,268,6.0,12.0,36,0.00,,,0.00,187,WeatherCatV1.11B39,2013-03-20 12:26:00,
2013-03-20 08:31:00,36.0,12.3,29.90,WNW,301,6.0,11.0,37,0.00,,,0.00,204,WeatherCatV1.11B39,2013-03-20 12:31:00,
2013-03-20 08:36:00,36.2,12.5,29.90,West,260,14.0,14.0,37,0.00,,,0.00,220,WeatherCatV1.11B39,2013-03-20 12:36:00,
2013-03-20 08:41:00,36.3,11.9,29.90,WSW,244,8.0,12.0,36,0.00,,,0.00,236,WeatherCatV1.11B39,2013-03-20 12:41:00,
2013-03-20 08:46:00,36.5,12.7,29.90,West,263,8.0,10.0,37,0.00,,,0.00,252,WeatherCatV1.11B39,2013-03-20 12:46:00,
2013-03-20 08:51:00,36.9,13.1,29.90,West,281,6.0,8.0,37,0.00,,,0.00,267,WeatherCatV1.11B39,2013-03-20 12:51:00,
2013-03-20 08:56:00,37.2,13.4,29.90,NW,305,4.0,7.0,37,0.00,,,0.00,285,WeatherCatV1.11B39,2013-03-20 12:56:00,
2013-03-20 09:01:00,37.0,12.6,29.90,WSW,256,7.0,12.0,36,0.00,,,0.00,301,WeatherCatV1.11B39,2013-03-20 13:01:00,
2013-03-20 09:06:00,37.0,11.9,29.90,West,268,7.0,10.0,35,0.00,,,0.00,317,WeatherCatV1.11B39,2013-03-20 13:06:00,
2013-03-20 09:11:00,37.2,10.8,29.90,West,280,2.0,10.0,33,0.00,,,0.00,333,WeatherCatV1.11B39,2013-03-20 13:11:00,
2013-03-20 09:16:00,37.6,12.5,29.90,West,281,4.0,8.0,35,0.00,,,0.00,348,WeatherCatV1.11B39,2013-03-20 13:16:00,
2013-03-20 09:21:00,38.0,12.2,29.90,West,280,6.0,17.0,34,0.00,,,0.00,364,WeatherCatV1.11B39,2013-03-20 13:21:00,
2013-03-20 09:26:00,38.0,12.8,29.90,WSW,257,7.0,13.0,35,0.00,,,0.00,380,WeatherCatV1.11B39,2013-03-20 13:26:00,
2013-03-20 09:31:00,38.8,13.5,29.91,WNW,282,5.0,6.0,35,0.00,,,0.00,394,WeatherCatV1.11B39,2013-03-20 13:31:00,
2013-03-20 09:36:00,39.1,12.5,29.91,West,274,6.0,7.0,33,0.00,,,0.00,410,WeatherCatV1.11B39,2013-03-20 13:36:00,
2013-03-20 09:41:00,39.3,13.3,29.91,WSW,257,5.0,8.0,34,0.00,,,0.00,424,WeatherCatV1.11B39,2013-03-20 13:41:00,
2013-03-20 09:46:00,39.5,12.8,29.91,SW,236,10.0,10.0,33,0.00,,,0.00,440,WeatherCatV1.11B39,2013-03-20 13:46:00,
2013-03-20 09:51:00,39.3,14.0,29.91,SW,236,2.0,10.0,35,0.00,,,0.00,454,WeatherCatV1.11B39,2013-03-20 13:51:00,
2013-03-20 09:56:00,39.6,12.2,29.91,West,274,11.0,12.0,32,0.00,,,0.00,468,WeatherCatV1.11B39,2013-03-20 13:56:00,
2013-03-20 10:01:00,39.8,12.4,29.91,WSW,243,2.0,16.0,32,0.00,,,0.00,482,WeatherCatV1.11B39,2013-03-20 14:01:00,
2013-03-20 10:06:00,39.9,10.3,29.91,WSW,241,10.0,17.0,29,0.00,,,0.00,496,WeatherCatV1.11B39,2013-03-20 14:06:00,
2013-03-20 10:11:00,39.5,10.7,29.91,West,260,7.0,17.0,30,0.00,,,0.00,507,WeatherCatV1.11B39,2013-03-20 14:11:00,
2013-03-20 10:16:00,40.6,11.6,29.91,SSW,205,7.0,11.0,30,0.00,,,0.00,519,WeatherCatV1.11B39,2013-03-20 14:16:00,
2013-03-20 10:21:00,40.8,10.2,29.91,West,280,10.0,13.0,28,0.00,,,0.00,535,WeatherCatV1.11B39,2013-03-20 14:21:00,
2013-03-20 10:26:00,40.6,10.9,29.91,WSW,254,3.0,18.0,29,0.00,,,0.00,549,WeatherCatV1.11B39,2013-03-20 14:26:00,
2013-03-20 10:31:00,40.6,9.3,29.90,West,270,10.0,21.0,27,0.00,,,0.00,560,WeatherCatV1.11B39,2013-03-20 14:31:00,
2013-03-20 10:36:00,41.3,11.5,29.90,WSW,241,2.0,8.0,29,0.00,,,0.00,572,WeatherCatV1.11B39,2013-03-20 14:36:00,
2013-03-20 10:41:00,40.9,10.3,29.90,WSW,246,13.0,16.0,28,0.00,,,0.00,581,WeatherCatV1.11B39,2013-03-20 14:41:00,
2013-03-20 10:46:00,41.1,9.7,29.90,West,274,8.0,16.0,27,0.00,,,0.00,593,WeatherCatV1.11B39,2013-03-20 14:46:00,
2013-03-20 10:51:00,40.8,10.2,29.90,West,260,13.0,19.0,28,0.00,,,0.00,605,WeatherCatV1.11B39,2013-03-20 14:51:00,
2013-03-20 10:56:00,40.8,10.2,29.90,West,278,7.0,18.0,28,0.00,,,0.00,618,WeatherCatV1.11B39,2013-03-20 14:56:00,
2013-03-20 11:01:00,42.3,11.5,29.89,South,179,8.0,15.0,28,0.00,,,0.00,626,WeatherCatV1.11B39,2013-03-20 15:01:00,
2013-03-20 11:06:00,41.9,10.4,29.89,SW,234,14.0,19.0,27,0.00,,,0.00,639,WeatherCatV1.11B39,2013-03-20 15:06:00,
2013-03-20 11:11:00,42.2,10.6,29.89,WSW,258,6.0,14.0,27,0.00,,,0.00,649,WeatherCatV1.11B39,2013-03-20 15:11:00,
2013-03-20 11:16:00,42.6,12.6,29.89,SW,223,5.0,18.0,29,0.00,,,0.00,658,WeatherCatV1.11B39,2013-03-20 15:16:00,
2013-03-20 11:21:00,43.3,12.4,29.89,WSW,251,6.0,11.0,28,0.00,,,0.00,667,WeatherCatV1.11B39,2013-03-20 15:21:00,
2013-03-20 11:26:00,43.3,11.6,29.89,WSW,246,7.0,11.0,27,0.00,,,0.00,676,WeatherCatV1.11B39,2013-03-20 15:26:00,
2013-03-20 11:31:00,43.3,12.4,29.88,West,272,7.0,17.0,28,0.00,,,0.00,686,WeatherCatV1.11B39,2013-03-20 15:31:00,
2013-03-20 11:36:00,43.1,11.4,29.88,WSW,251,14.0,17.0,27,0.00,,,0.00,699,WeatherCatV1.11B39,2013-03-20 15:36:00,
2013-03-20 11:41:00,43.9,12.1,29.88,SW,226,7.0,14.0,27,0.00,,,0.00,706,WeatherCatV1.11B39,2013-03-20 15:41:00,
2013-03-20 11:46:00,43.3,11.6,29.88,WSW,241,7.0,17.0,27,0.00,,,0.00,713,WeatherCatV1.11B39,2013-03-20 15:46:00,
2013-03-20 11:51:00,43.6,11.9,29.88,WNW,287,13.0,14.0,27,0.00,,,0.00,721,WeatherCatV1.11B39,2013-03-20 15:51:00,
2013-03-20 11:56:00,44.3,13.3,29.88,South,185,3.0,12.0,28,0.00,,,0.00,744,WeatherCatV1.11B39,2013-03-20 15:56:00,
2013-03-20 12:01:00,44.5,11.8,29.87,WNW,295,5.0,14.0,26,0.00,,,0.00,778,WeatherCatV1.11B39,2013-03-20 16:01:00,
2013-03-20 12:06:00,44.2,13.2,29.87,WSW,237,17.0,19.0,28,0.00,,,0.00,790,WeatherCatV1.11B39,2013-03-20 16:06:00,
2013-03-20 12:11:00,45.1,12.3,29.87,WSW,243,12.0,17.0,26,0.00,,,0.00,790,WeatherCatV1.11B39,2013-03-20 16:11:00,
2013-03-20 12:16:00,45.4,12.5,29.87,West,265,6.0,13.0,26,0.00,,,0.00,788,WeatherCatV1.11B39,2013-03-20 16:16:00,
2013-03-20 12:21:00,44.8,11.2,29.87,West,277,5.0,14.0,25,0.00,,,0.00,778,WeatherCatV1.11B39,2013-03-20 16:21:00,
2013-03-20 12:27:00,45.8,12.9,29.87,SW,219,5.0,20.0,26,0.00,,,0.00,799,WeatherCatV1.11B39,2013-03-20 16:27:00,
2013-03-20 12:32:00,46.0,12.2,29.85,WSW,256,2.0,10.0,25,0.00,,,0.00,823,WeatherCatV1.11B39,2013-03-20 16:32:00,
2013-03-20 12:38:00,45.4,13.4,29.85,WSW,251,7.0,12.0,27,0.00,,,0.00,852,WeatherCatV1.11B39,2013-03-20 16:38:00,
2013-03-20 12:43:00,46.5,11.7,29.85,West,270,4.0,14.0,24,0.00,,,0.00,894,WeatherCatV1.11B39,2013-03-20 16:43:00,
2013-03-20 12:48:00,47.1,14.9,29.84,SSW,209,11.0,13.0,27,0.00,,,0.00,843,WeatherCatV1.11B39,2013-03-20 16:48:00,
2013-03-20 12:53:00,47.7,11.7,29.84,SW,229,13.0,17.0,23,0.00,,,0.00,941,WeatherCatV1.11B39,2013-03-20 16:53:00,
2013-03-20 12:59:00,47.3,12.4,29.84,West,263,8.0,19.0,24,0.00,,,0.00,931,WeatherCatV1.11B39,2013-03-20 16:59:00,
2013-03-20 13:04:00,47.9,13.8,29.84,WSW,257,5.0,16.0,25,0.00,,,0.00,396,WeatherCatV1.11B39,2013-03-20 17:04:00,
2013-03-20 13:09:00,47.0,13.9,29.84,WSW,253,10.0,17.0,26,0.00,,,0.00,999,WeatherCatV1.11B39,2013-03-20 17:09:00,
2013-03-20 13:14:00,48.0,12.0,29.84,SW,234,12.0,24.0,23,0.00,,,0.00,903,WeatherCatV1.11B39,2013-03-20 17:14:00,
2013-03-20 13:19:00,47.3,12.4,29.83,WSW,250,14.0,24.0,24,0.00,,,0.00,857,WeatherCatV1.11B39,2013-03-20 17:19:00,
2013-03-20 13:24:00,47.4,14.3,29.83,WSW,244,11.0,25.0,26,0.00,,,0.00,860,WeatherCatV1.11B39,2013-03-20 17:24:00,
2013-03-20 13:29:00,48.0,13.0,29.83,SW,234,10.0,12.0,24,0.00,,,0.00,894,WeatherCatV1.11B39,2013-03-20 17:29:00,
2013-03-20 13:34:00,48.0,12.0,29.82,WSW,239,12.0,14.0,23,0.00,,,0.00,855,WeatherCatV1.11B39,2013-03-20 17:34:00,
2013-03-20 13:39:00,48.0,12.0,29.82,WSW,257,6.0,8.0,23,0.00,,,0.00,855,WeatherCatV1.11B39,2013-03-20 17:39:00,
2013-03-20 13:44:00,48.2,13.1,29.82,WSW,257,16.0,16.0,24,0.00,,,0.00,887,WeatherCatV1.11B39,2013-03-20 17:44:00,
2013-03-20 13:49:00,47.7,11.7,29.81,WSW,244,14.0,26.0,23,0.00,,,0.00,832,WeatherCatV1.11B39,2013-03-20 17:49:00,
2013-03-20 13:54:00,47.1,13.1,29.81,SSW,212,6.0,12.0,25,0.00,,,0.00,162,WeatherCatV1.11B39,2013-03-20 17:54:00,
2013-03-20 13:59:00,46.7,12.8,29.80,West,260,8.0,10.0,25,0.00,,,0.00,162,WeatherCatV1.11B39,2013-03-20 17:59:00,
2013-03-20 14:04:00,47.3,11.4,29.80,WSW,257,10.0,16.0,23,0.00,,,0.00,178,WeatherCatV1.11B39,2013-03-20 18:04:00,
2013-03-20 14:09:00,47.7,11.7,29.80,WSW,250,7.0,22.0,23,0.00,,,0.00,843,WeatherCatV1.11B39,2013-03-20 18:09:00,
2013-03-20 14:14:00,48.8,11.7,29.79,SW,219,8.0,20.0,22,0.00,,,0.00,823,WeatherCatV1.11B39,2013-03-20 18:14:00,
2013-03-20 14:19:00,48.3,11.2,29.79,WSW,251,4.0,22.0,22,0.00,,,0.00,843,WeatherCatV1.11B39,2013-03-20 18:19:00,
2013-03-20 14:24:00,48.8,11.7,29.79,WSW,239,13.0,22.0,22,0.00,,,0.00,788,WeatherCatV1.11B39,2013-03-20 18:24:00,
2013-03-20 14:29:00,48.5,11.4,29.78,West,274,16.0,19.0,22,0.00,,,0.00,774,WeatherCatV1.11B39,2013-03-20 18:29:00,
2013-03-20 14:34:00,47.9,11.9,29.78,WSW,239,17.0,17.0,23,0.00,,,0.00,259,WeatherCatV1.11B39,2013-03-20 18:34:00,
2013-03-20 14:39:00,48.0,10.0,29.78,WSW,251,11.0,13.0,21,0.00,,,0.00,292,WeatherCatV1.11B39,2013-03-20 18:39:00,
2013-03-20 14:44:00,47.6,12.6,29.77,WSW,253,8.0,16.0,24,0.00,,,0.00,285,WeatherCatV1.11B39,2013-03-20 18:44:00,
2013-03-20 14:49:00,49.1,11.9,29.77,SSW,206,3.0,11.0,22,0.00,,,0.00,646,WeatherCatV1.11B39,2013-03-20 18:49:00,
2013-03-20 14:54:00,49.6,13.3,29.77,WSW,256,12.0,18.0,23,0.00,,,0.00,783,WeatherCatV1.11B39,2013-03-20 18:54:00,
2013-03-20 14:59:00,49.8,12.5,29.75,WSW,254,12.0,18.0,22,0.00,,,0.00,285,WeatherCatV1.11B39,2013-03-20 18:59:00,
2013-03-20 15:04:00,49.2,13.0,29.75,West,274,6.0,12.0,23,0.00,,,0.00,310,WeatherCatV1.11B39,2013-03-20 19:04:00,
2013-03-20 15:09:00,48.9,12.8,29.75,West,260,7.0,17.0,23,0.00,,,0.00,299,WeatherCatV1.11B39,2013-03-20 19:09:00,
2013-03-20 15:14:00,49.4,13.2,29.75,SW,236,7.0,17.0,23,0.00,,,0.00,811,WeatherCatV1.11B39,2013-03-20 19:14:00,
2013-03-20 15:19:00,49.4,12.2,29.75,WSW,246,8.0,15.0,22,0.00,,,0.00,285,WeatherCatV1.11B39,2013-03-20 19:19:00,
2013-03-20 15:24:00,48.8,11.7,29.75,West,265,12.0,17.0,22,0.00,,,0.00,486,WeatherCatV1.11B39,2013-03-20 19:24:00,
2013-03-20 15:29:00,49.8,13.5,29.73,WSW,243,6.0,6.0,23,0.00,,,0.00,468,WeatherCatV1.11B39,2013-03-20 19:29:00,
2013-03-20 15:34:00,50.4,10.9,29.73,WSW,257,6.0,7.0,20,0.00,,,0.00,516,WeatherCatV1.11B39,2013-03-20 19:34:00,
2013-03-20 15:39:00,50.4,10.9,29.73,West,267,13.0,13.0,20,0.00,,,0.00,370,WeatherCatV1.11B39,2013-03-20 19:39:00,
2013-03-20 15:44:00,50.4,10.9,29.73,WSW,244,10.0,17.0,20,0.00,,,0.00,336,WeatherCatV1.11B39,2013-03-20 19:44:00,
2013-03-20 15:49:00,50.4,10.9,29.73,WSW,253,16.0,16.0,20,0.00,,,0.00,243,WeatherCatV1.11B39,2013-03-20 19:49:00,
2013-03-20 15:54:00,51.1,12.5,29.73,SSW,213,8.0,19.0,21,0.00,,,0.00,243,WeatherCatV1.11B39,2013-03-20 19:54:00,
2013-03-20 15:59:00,50.7,11.1,29.72,West,264,6.0,19.0,20,0.00,,,0.00,297,WeatherCatV1.11B39,2013-03-20 19:59:00,
2013-03-20 16:04:00,51.1,11.4,29.72,West,271,1.0,20.0,20,0.00,,,0.00,656,WeatherCatV1.11B39,2013-03-20 20:04:00,
2013-03-20 16:09:00,51.1,9.1,29.72,WSW,250,8.0,24.0,18,0.00,,,0.00,688,WeatherCatV1.11B39,2013-03-20 20:09:00,
2013-03-20 16:14:00,51.6,10.7,29.71,SW,217,6.0,17.0,19,0.00,,,0.00,570,WeatherCatV1.11B39,2013-03-20 20:14:00,
2013-03-20 16:19:00,50.2,8.4,29.71,WSW,247,17.0,22.0,18,0.00,,,0.00,227,WeatherCatV1.11B39,2013-03-20 20:19:00,
2013-03-20 16:24:00,51.4,10.5,29.71,WSW,237,11.0,19.0,19,0.00,,,0.00,649,WeatherCatV1.11B39,2013-03-20 20:24:00,
2013-03-20 16:29:00,51.1,11.4,29.71,WSW,258,10.0,20.0,20,0.00,,,0.00,477,WeatherCatV1.11B39,2013-03-20 20:29:00,
2013-03-20 16:34:00,51.4,11.7,29.71,WSW,243,13.0,18.0,20,0.00,,,0.00,431,WeatherCatV1.11B39,2013-03-20 20:34:00,
2013-03-20 16:39:00,51.7,9.6,29.71,WSW,254,10.0,17.0,18,0.00,,,0.00,429,WeatherCatV1.11B39,2013-03-20 20:39:00,
2013-03-20 16:44:00,51.7,11.9,29.70,WSW,258,7.0,10.0,20,0.00,,,0.00,260,WeatherCatV1.11B39,2013-03-20 20:44:00,
2013-03-20 16:49:00,50.7,12.2,29.70,SSW,213,12.0,12.0,21,0.00,,,0.00,246,WeatherCatV1.11B39,2013-03-20 20:49:00,
2013-03-20 16:54:00,50.2,9.6,29.70,SW,230,10.0,18.0,19,0.00,,,0.00,318,WeatherCatV1.11B39,2013-03-20 20:54:00,
2013-03-20 16:59:00,50.2,10.7,29.70,WSW,240,16.0,20.0,20,0.00,,,0.00,225,WeatherCatV1.11B39,2013-03-20 20:59:00,
2013-03-20 17:04:00,50.2,9.6,29.70,WSW,253,15.0,15.0,19,0.00,,,0.00,232,WeatherCatV1.11B39,2013-03-20 21:04:00,
2013-03-20 17:09:00,50.1,9.5,29.70,WSW,239,8.0,16.0,19,0.00,,,0.00,236,WeatherCatV1.11B39,2013-03-20 21:09:00,
2013-03-20 17:14:00,50.4,10.9,29.70,SW,234,4.0,13.0,20,0.00,,,0.00,211,WeatherCatV1.11B39,2013-03-20 21:14:00,
2013-03-20 17:19:00,50.4,10.9,29.70,WSW,250,11.0,16.0,20,0.00,,,0.00,151,WeatherCatV1.11B39,2013-03-20 21:19:00,
2013-03-20 17:24:00,49.9,10.4,29.70,WSW,254,8.0,13.0,20,0.00,,,0.00,113,WeatherCatV1.11B39,2013-03-20 21:24:00,
2013-03-20 17:29:00,49.8,10.4,29.69,WSW,239,5.0,11.0,20,0.00,,,0.00,100,WeatherCatV1.11B39,2013-03-20 21:29:00,
2013-03-20 17:34:00,49.6,11.3,29.69,West,274,6.0,11.0,21,0.00,,,0.00,95,WeatherCatV1.11B39,2013-03-20 21:34:00,
2013-03-20 17:39:00,49.5,12.3,29.69,West,272,4.0,10.0,22,0.00,,,0.00,99,WeatherCatV1.11B39,2013-03-20 21:39:00,
2013-03-20 17:44:00,49.2,11.0,29.69,West,270,12.0,12.0,21,0.00,,,0.00,100,WeatherCatV1.11B39,2013-03-20 21:44:00,
2013-03-20 17:49:00,48.9,10.7,29.69,WSW,256,12.0,14.0,21,0.00,,,0.00,95,WeatherCatV1.11B39,2013-03-20 21:49:00,
2013-03-20 17:54:00,48.9,10.7,29.69,WSW,256,7.0,13.0,21,0.00,,,0.00,111,WeatherCatV1.11B39,2013-03-20 21:54:00,
2013-03-20 17:59:00,49.1,10.9,29.69,WNW,298,5.0,11.0,21,0.00,,,0.00,113,WeatherCatV1.11B39,2013-03-20 21:59:00,
2013-03-20 18:04:00,49.1,11.9,29.69,West,277,5.0,7.0,22,0.00,,,0.00,84,WeatherCatV1.11B39,2013-03-20 22:04:00,
2013-03-20 18:09:00,48.9,11.8,29.69,WNW,282,6.0,9.0,22,0.00,,,0.00,83,WeatherCatV1.11B39,2013-03-20 22:09:00,
2013-03-20 18:14:00,48.9,11.8,29.69,West,280,5.0,12.0,22,0.00,,,0.00,72,WeatherCatV1.11B39,2013-03-20 22:14:00,
2013-03-20 18:19:00,48.8,10.6,29.69,WSW,243,3.0,8.0,21,0.00,,,0.00,60,WeatherCatV1.11B39,2013-03-20 22:19:00,
2013-03-20 18:24:00,48.6,10.5,29.69,WSW,256,7.0,17.0,21,0.00,,,0.00,46,WeatherCatV1.11B39,2013-03-20 22:24:00,
2013-03-20 18:29:00,48.6,10.5,29.69,West,267,10.0,12.0,21,0.00,,,0.00,49,WeatherCatV1.11B39,2013-03-20 22:29:00,
2013-03-20 18:34:00,48.6,10.5,29.69,West,275,1.0,6.0,21,0.00,,,0.00,53,WeatherCatV1.11B39,2013-03-20 22:34:00,
2013-03-20 18:39:00,48.6,10.5,29.69,WSW,246,3.0,5.0,21,0.00,,,0.00,46,WeatherCatV1.11B39,2013-03-20 22:39:00,
2013-03-20 18:44:00,48.5,12.4,29.68,WSW,256,4.0,7.0,23,0.00,,,0.00,33,WeatherCatV1.11B39,2013-03-20 22:44:00,
2013-03-20 18:49:00,48.5,13.4,29.68,WNW,294,6.0,7.0,24,0.00,,,0.00,39,WeatherCatV1.11B39,2013-03-20 22:49:00,
2013-03-20 18:54:00,48.2,13.1,29.68,West,264,3.0,6.0,24,0.00,,,0.00,26,WeatherCatV1.11B39,2013-03-20 22:54:00,
2013-03-20 18:59:00,48.0,13.0,29.69,West,264,1.0,6.0,24,0.00,,,0.00,23,WeatherCatV1.11B39,2013-03-20 22:59:00,
2013-03-20 19:04:00,47.9,12.9,29.69,WNW,298,5.0,7.0,24,0.00,,,0.00,16,WeatherCatV1.11B39,2013-03-20 23:04:00,
2013-03-20 19:09:00,47.7,13.6,29.69,West,270,3.0,7.0,25,0.00,,,0.00,12,WeatherCatV1.11B39,2013-03-20 23:09:00,
2013-03-20 19:14:00,47.7,10.7,29.69,NW,306,5.0,7.0,22,0.00,,,0.00,9,WeatherCatV1.11B39,2013-03-20 23:14:00,
2013-03-20 19:19:00,47.6,12.6,29.69,West,261,5.0,10.0,24,0.00,,,0.00,5,WeatherCatV1.11B39,2013-03-20 23:19:00,
2013-03-20 19:24:00,47.4,12.4,29.69,West,260,5.0,7.0,24,0.00,,,0.00,5,WeatherCatV1.11B39,2013-03-20 23:24:00,
2013-03-20 19:29:00,47.4,13.4,29.69,WSW,246,4.0,6.0,25,0.00,,,0.00,0,WeatherCatV1.11B39,2013-03-20 23:29:00,
2013-03-20 19:34:00,47.3,14.2,29.69,West,272,2.0,7.0,26,0.00,,,0.00,0,WeatherCatV1.11B39,2013-03-20 23:34:00,
2013-03-20 19:39:00,47.4,13.4,29.69,WSW,251,3.0,12.0,25,0.00,,,0.00,0,WeatherCatV1.11B39,2013-03-20 23:39:00,
2013-03-20 19:44:00,47.3,13.3,29.69,WSW,256,4.0,5.0,25,0.00,,,0.00,0,WeatherCatV1.11B39,2013-03-20 23:44:00,
2013-03-20 19:49:00,47.0,12.1,29.69,West,261,8.0,10.0,24,0.00,,,0.00,0,WeatherCatV1.11B39,2013-03-20 23:49:00,
2013-03-20 19:54:00,46.8,12.9,29.69,WNW,295,3.0,6.0,25,0.00,,,0.00,0,WeatherCatV1.11B39,2013-03-20 23:54:00,
2013-03-20 19:59:00,46.7,13.7,29.70,WSW,248,2.0,5.0,26,0.00,,,0.00,0,WeatherCatV1.11B39,2013-03-20 23:59:00,
2013-03-20 20:04:00,46.5,13.5,29.70,West,265,5.0,7.0,26,0.00,,,0.00,0,WeatherCatV1.11B39,2013-03-21 00:04:00,
2013-03-20 20:09:00,46.4,13.4,29.70,WSW,256,3.0,9.0,26,0.00,,,0.00,0,WeatherCatV1.11B39,2013-03-21 00:09:00,
2013-03-20 20:14:00,46.4,14.3,29.70,West,280,2.0,7.0,27,0.00,,,0.00,0,WeatherCatV1.11B39,2013-03-21 00:14:00,
2013-03-20 20:19:00,46.1,14.8,29.70,WNW,291,6.0,10.0,28,0.00,,,0.00,0,WeatherCatV1.11B39,2013-03-21 00:19:00,
2013-03-20 20:25:00,45.7,15.3,29.70,NW,304,3.0,10.0,29,0.00,,,0.00,0,WeatherCatV1.11B39,2013-03-21 00:25:00,
2013-03-20 20:30:00,45.4,15.8,29.71,NW,313,6.0,12.0,30,0.00,,,0.00,0,WeatherCatV1.11B39,2013-03-21 00:30:00,
2013-03-20 20:35:00,45.1,15.5,29.71,West,280,5.0,8.0,30,0.00,,,0.00,0,WeatherCatV1.11B39,2013-03-21 00:35:00,
2013-03-20 20:40:00,44.8,16.8,29.71,WNW,296,5.0,8.0,32,0.00,,,0.00,0,WeatherCatV1.11B39,2013-03-21 00:40:00,
2013-03-20 20:45:00,44.5,15.8,29.72,WNW,295,8.0,11.0,31,0.00,,,0.00,0,WeatherCatV1.11B39,2013-03-21 00:45:00,
2013-03-20 20:50:00,44.3,15.6,29.72,WNW,296,5.0,12.0,31,0.00,,,0.00,0,WeatherCatV1.11B39,2013-03-21 00:50:00,
2013-03-20 20:55:00,44.2,16.9,29.72,WNW,287,10.0,13.0,33,0.00,,,0.00,0,WeatherCatV1.11B39,2013-03-21 00:55:00,
2013-03-20 21:00:00,43.9,17.4,29.72,WNW,296,6.0,8.0,34,0.00,,,0.00,0,WeatherCatV1.11B39,2013-03-21 01:00:00,
2013-03-20 21:05:00,43.5,18.3,29.72,WNW,299,6.0,6.0,36,0.00,,,0.00,0,WeatherCatV1.11B39,2013-03-21 01:05:00,
2013-03-20 21:10:00,42.8,19.0,29.72,WNW,289,8.0,14.0,38,0.00,,,0.00,0,WeatherCatV1.11B39,2013-03-21 01:10:00,
2013-03-20 21:15:00,42.3,19.1,29.73,WNW,294,3.0,9.0,39,0.00,,,0.00,0,WeatherCatV1.11B39,2013-03-21 01:15:00,
2013-03-20 21:20:00,41.8,21.0,29.73,NNW,340,12.0,16.0,43,0.00,,,0.00,0,WeatherCatV1.11B39,2013-03-21 01:20:00,
2013-03-20 21:25:00,41.3,21.0,29.73,WNW,287,6.0,13.0,44,0.00,,,0.00,0,WeatherCatV1.11B39,2013-03-21 01:25:00,
2013-03-20 21:30:00,41.2,21.0,29.74,NW,311,11.0,14.0,44,0.00,,,0.00,0,WeatherCatV1.11B39,2013-03-21 01:30:00,
2013-03-20 21:35:00,40.9,21.7,29.74,WNW,288,14.0,16.0,46,0.00,,,0.00,0,WeatherCatV1.11B39,2013-03-21 01:35:00,
2013-03-20 21:40:00,40.6,21.5,29.74,NW,309,3.0,11.0,46,0.00,,,0.00,0,WeatherCatV1.11B39,2013-03-21 01:40:00,
2013-03-20 21:45:00,40.3,22.2,29.73,WNW,299,12.0,16.0,48,0.00,,,0.00,0,WeatherCatV1.11B39,2013-03-21 01:45:00,
2013-03-20 21:50:00,40.1,23.0,29.73,NNW,336,11.0,11.0,50,0.00,,,0.00,0,WeatherCatV1.11B39,2013-03-21 01:50:00,
2013-03-20 21:55:00,39.8,22.7,29.73,WNW,292,3.0,9.0,50,0.00,,,0.00,0,WeatherCatV1.11B39,2013-03-21 01:55:00,
2013-03-20 22:00:00,39.6,23.0,29.74,NW,308,14.0,14.0,51,0.00,,,0.00,0,WeatherCatV1.11B39,2013-03-21 02:00:00,
2013-03-20 22:05:00,39.3,23.2,29.74,West,281,1.0,9.0,52,0.00,,,0.00,0,WeatherCatV1.11B39,2013-03-21 02:05:00,
2013-03-20 22:10:00,39.2,24.4,29.74,WNW,302,5.0,8.0,55,0.00,,,0.00,0,WeatherCatV1.11B39,2013-03-21 02:10:00,
2013-03-20 22:15:00,39.1,23.9,29.73,NW,313,7.0,19.0,54,0.00,,,0.00,0,WeatherCatV1.11B39,2013-03-21 02:15:00,
2013-03-20 22:20:00,38.9,24.1,29.73,NNW,328,10.0,13.0,55,0.00,,,0.00,0,WeatherCatV1.11B39,2013-03-21 02:20:00,
2013-03-20 22:25:00,38.9,24.1,29.73,WNW,299,7.0,13.0,55,0.00,,,0.00,0,WeatherCatV1.11B39,2013-03-21 02:25:00,
2013-03-20 22:30:00,38.8,24.0,29.73,WNW,294,10.0,12.0,55,0.00,,,0.00,0,WeatherCatV1.11B39,2013-03-21 02:30:00,
2013-03-20 22:35:00,38.8,24.5,29.73,NW,309,6.0,17.0,56,0.00,,,0.00,0,WeatherCatV1.11B39,2013-03-21 02:35:00,
2013-03-20 22:40:00,38.6,24.3,29.73,NW,318,0.0,11.0,56,0.00,,,0.00,0,WeatherCatV1.11B39,2013-03-21 02:40:00,
2013-03-20 22:45:00,38.5,24.2,29.73,NNW,335,7.0,11.0,56,0.00,,,0.00,0,WeatherCatV1.11B39,2013-03-21 02:45:00,
2013-03-20 22:50:00,38.5,25.4,29.73,NW,326,7.0,11.0,59,0.00,,,0.00,0,WeatherCatV1.11B39,2013-03-21 02:50:00,
2013-03-20 22:56:00,38.3,24.4,29.73,North,357,3.0,6.0,57,0.00,,,0.00,0,WeatherCatV1.11B39,2013-03-21 02:56:00,
2013-03-20 23:01:00,38.2,25.2,29.75,NE,47,0.0,5.0,59,0.00,,,0.00,0,WeatherCatV1.11B39,2013-03-21 03:01:00,
2013-03-20 23:06:00,38.0,25.0,29.75,NE,34,0.0,0.0,59,0.00,,,0.00,0,WeatherCatV1.11B39,2013-03-21 03:06:00,
2013-03-20 23:11:00,38.0,25.0,29.75,NE,34,0.0,0.0,59,0.00,,,0.00,0,WeatherCatV1.11B39,2013-03-21 03:11:00,
2013-03-20 23:16:00,38.2,25.2,29.75,NE,34,0.0,0.0,59,0.00,,,0.00,0,WeatherCatV1.11B39,2013-03-21 03:16:00,
2013-03-20 23:21:00,38.0,25.0,29.75,NW,311,2.0,2.0,59,0.00,,,0.00,0,WeatherCatV1.11B39,2013-03-21 03:21:00,
2013-03-20 23:26:00,37.9,24.9,29.75,NNW,328,3.0,6.0,59,0.00,,,0.00,0,WeatherCatV1.11B39,2013-03-21 03:26:00,
2013-03-20 23:31:00,37.8,24.8,29.73,NNW,329,2.0,3.0,59,0.00,,,0.00,0,WeatherCatV1.11B39,2013-03-21 03:31:00,
2013-03-20 23:36:00,37.6,24.6,29.73,NNW,336,0.0,7.0,59,0.00,,,0.00,0,WeatherCatV1.11B39,2013-03-21 03:36:00,
2013-03-20 23:41:00,37.6,24.6,29.73,NNW,335,2.0,7.0,59,0.00,,,0.00,0,WeatherCatV1.11B39,2013-03-21 03:41:00,
2013-03-20 23:46:00,37.6,24.6,29.75,North,349,0.0,6.0,59,0.00,,,0.00,0,WeatherCatV1.11B39,2013-03-21 03:46:00,
2013-03-20 23:54:00,37.6,24.6,29.75,NNW,346,0.0,3.0,59,0.00,,,0.00,0,WeatherCatV1.11B39,2013-03-21 03:54:00,
2013-03-20 23:59:00,37.6,24.6,29.75,North,353,2.0,6.0,59,0.00,,,0.00,0,WeatherCatV1.11B39,2013-03-21 03:59:00,